This is the latest recevied weather packets stored in our database for station/object AK4NG. If no packets are shown the sender has not sent any weather packets the latest 10 day(s).
| Time | Temp. | Humidity | Pressure | Rain* | Wind** | Luminosity | Snow |
|---|---|---|---|---|---|---|---|
| 1778071750 | 21.11° C | 89% | 1016.4 hPa | 0 mm | - | 116 W/m² | - |
| 1778071447 | 21.11° C | 90% | 1016.2 hPa | 0 mm | - | 110 W/m² | - |
| 1778071145 | 21.11° C | 91% | 1016.2 hPa | 0 mm | - | 114 W/m² | - |
| 1778070843 | 20.56° C | 92% | 1016.2 hPa | 0 mm | - | 110 W/m² | - |
| 1778070539 | 20.56° C | 92% | 1016.2 hPa | 0 mm | - | 102 W/m² | - |
| 1778070236 | 20° C | 93% | 1016.1 hPa | 0 mm | - | 93 W/m² | - |
| 1778069935 | 20° C | 95% | 1016.2 hPa | 0 mm | - | 66 W/m² | - |
| 1778069632 | 20° C | 96% | 1016.2 hPa | 0 mm | - | 79 W/m² | - |
| 1778069328 | 19.44° C | 96% | 1015.7 hPa | 0 mm | - | 72 W/m² | - |
| 1778069026 | 19.44° C | 97% | 1015.7 hPa | 0 mm | - | 49 W/m² | - |
| 1778068723 | 18.89° C | 97% | 1015.6 hPa | 0 mm | - | 38 W/m² | - |
| 1778068422 | 18.89° C | 97% | 1015.5 hPa | 0 mm | - | 38 W/m² | - |
| 1778068119 | 18.89° C | 97% | 1015.8 hPa | 0 mm | - | 41 W/m² | - |
| 1778067817 | 18.89° C | 97% | 1015.5 hPa | 0 mm | - | 34 W/m² | - |
| 1778067515 | 18.89° C | 97% | 1015.4 hPa | 0 mm | - | 26 W/m² | - |
| 1778067212 | 18.89° C | 97% | 1015.2 hPa | 0 mm | - | 25 W/m² | - |
| 1778066909 | 18.89° C | 97% | 1015.2 hPa | 0 mm | - | 20 W/m² | - |
| 1778066606 | 18.89° C | 97% | 1015.1 hPa | 0 mm | - | 21 W/m² | - |
| 1778066303 | 18.89° C | 97% | 1014.9 hPa | 0 mm | - | 23 W/m² | - |
| 1778066001 | 18.89° C | 97% | 1014.8 hPa | 0 mm | - | 20 W/m² | - |
| 1778065699 | 18.89° C | 97% | 1014.8 hPa | 0 mm | - | 14 W/m² | - |
| 1778065396 | 18.89° C | 96% | 1014.7 hPa | 0 mm | - | 8 W/m² | - |
| 1778065092 | 18.89° C | 96% | 1014.7 hPa | 0 mm | - | 5 W/m² | - |
| 1778064789 | 18.89° C | 96% | 1014.3 hPa | 0 mm | - | 3 W/m² | - |
| 1778064487 | 18.89° C | 96% | 1014.1 hPa | 0 mm | - | 1 W/m² | - |
* Rain latest hour (hover to see other rain measurements)
** Current wind speed in m/s (hover to see current wind gust speed)